Location: �quirre
(50.4736°N, 2.2351°E)
Time: 21:54:04
(UTC+00:00)

FALCON 9 DEB - Pass Details

Date: 07 August 2020
Orbit: 427 x 441 km, 53.0° (Epoch: 22 September)

Event Time Altitude Azimuth Distance (km) Brightness Sun altitude
Rises 03:24:19 0° 290° (WNW) 2,431 6.6 -9.2°
Reaches altitude 10° 03:26:32 10° 282° (WNW) 1,557 5.6 -9.0°
Maximum altitude 03:29:47 36° 214° (SW) 710 3.7 -8.6°
Drops below altitude 10° 03:32:59 10° 146° (SE) 1,542 5.9 -8.2°
Sets 03:35:11 0° 138° (SE) 2,405 7.0 -7.9°
